Content
SEND FEEDBACK

Daily
Averages
Monthly
Summary
United States of America

NORFOLK, VIRGINIA


Home > North America > United States > Virginia
Elevation: 14 feet     Latitude: 36 54N     Longitude: 076 12W

WEATHER
 
SELECT A DAY
Number of Records: 94,419;   Date Range: 1/1/95 - 11/26/14
 
SHARE

PRINT THIS DATA

[ ← Previous Day ]
WEATHER ALMANAC - FEBRUARY 16, 2014
[ Next Day → ]
[ °C ]   °F
Weather ElementAverageHighLow
Temperature37.5 °F46.9 °F (5:51 pm)26.1 °F (4:51 am)
Dewpoint21.8 °F28.9 °F (6:51 pm)16 °F (11:51 am)
Humidity54.2 %71 % (4:51 am)35 % (1:51 pm)
Barometer30.06 in30.19 in (11:51 pm)29.97 in (4:51 pm)
Wind Speed5.5 mph18.4 mph (10:51 pm)
Wind Gust27.6 mph (10:51 pm)
Weather ElementAverage
Visibility10 mi
Wind DirectionSE (138.8 °)

Weather ElementTotal
Precipitation---
Heating Degree Days28.5 (Base 65)
Averaged from 24 records on February 16, 2014
WEATHER CONDITIONS BREAKOUT
WIND DIRECTION BREAKOUT
WEATHER BY HOUR - FEBRUARY 16, 2014
[ °C ]   °F
Local TimeTemperatureDewpointHumidityBarometerVisibilityWind DirectionWind SpeedGust SpeedPrecipitationEventsConditions
1:51 AM32.0 °F19.0 °F59 %30.01 in10.0 miNW (310°)3.5 mphClear
2:51 AM32.0 °F19.0 °F59 %30.02 in10.0 miCalmClear
3:51 AM28.9 °F19.0 °F67 %30.03 in10.0 miWSW (240°)3.5 mphClear
4:51 AM26.1 °F18.0 °F71 %30.04 in10.0 miSW (230°)3.5 mphClear
5:51 AM28.9 °F19.0 °F67 %30.06 in10.0 miWSW (250°)4.6 mphClear
6:51 AM30.0 °F19.0 °F64 %30.06 in10.0 miWest (260°)3.5 mphClear
7:51 AM30.9 °F19.9 °F64 %30.09 in10.0 miCalmScattered Clouds
8:51 AM33.1 °F21.0 °F61 %30.09 in10.0 miWest (280°)5.8 mphPartly Cloudy
9:51 AM36.0 °F19.0 °F50 %30.09 in10.0 miNorth (10°)3.5 mphClear
10:51 AM36.0 °F19.0 °F50 %30.09 in10.0 miNNE (30°)4.6 mphClear
11:51 AM37.9 °F16.0 °F41 %30.08 in10.0 miNNE (30°)5.8 mphClear
12:51 PM41.0 °F16.0 °F36 %30.03 in10.0 miCalmClear
1:51 PM44.1 °F18.0 °F35 %30.01 in10.0 miSW (230°)11.5 mph19.6 mphClear
2:51 PM41.0 °F24.1 °F51 %29.99 in10.0 miNNE (30°)6.9 mphClear
3:51 PM43.0 °F24.1 °F47 %29.98 in10.0 miNE (50°)3.5 mphClear
4:51 PM45.0 °F24.1 °F44 %29.97 in10.0 miNorth (10°)5.8 mphScattered Clouds
5:51 PM46.9 °F24.1 °F41 %29.99 in10.0 miVariable4.6 mphMostly Cloudy
6:51 PM42.1 °F28.9 °F60 %30.03 in10.0 miCalmOvercast
7:51 PM45.0 °F27.0 °F49 %30.05 in10.0 miWNW (300°)4.6 mphOvercast
8:51 PM44.1 °F26.1 °F49 %30.07 in10.0 miVariable3.5 mphMostly Cloudy
9:51 PM44.1 °F24.1 °F45 %30.09 in10.0 miVariable6.9 mphMostly Cloudy
10:51 PM42.1 °F25.0 °F51 %30.13 in10.0 miNorth (350°)18.4 mph27.6 mphOvercast
11:09 PM35.6 °F26.6 °F70 %30.16 in10.0 miNorth (360°)12.7 mph25.3 mphScattered Clouds
11:51 PM35.1 °F26.1 °F70 %30.19 in10.0 miNorth (360°)16.1 mph21.9 mphClear
Hourly data recorded from KORF, located miles away from Norfolk, Virginia







STORIES FROM OUR PARTNERS